Regional Weather Roundup
Issued by NWS Kansas City/Pleasant Hill, MO

Home | Current Version | Previous Version | Graphics & Text | Print | Product List | Glossary Off
Versions: 1 2 3 4 5 6 7 8 9 10 11 12 13 14 15 16 17 18 19 20 21 22 23 24 25 26 27 28 29 30 31 32 33 34 35 36 37 38 39 40 41 42 43 44 45 46 47 48 49 50

000
ASUS43 KEAX 020510
RWREAX

WEATHER ROUNDUP FOR EASTERN KANSAS AND NORTHWEST MISSOURI
NATIONAL WEATHER SERVICE KANSAS CITY/PLEASANT HILL MO
1200 AM CDT TUE JUN 02 2015

KSZ040-057-103>105-MOZ028-029-037-043-020600-
...KANSAS CITY METROPOLITAN AREA...

CITY           SKY/WX    TMP DP  RH WIND       PRES   REMARKS
K.C. INTL      CLOUDY    60  54  80 S13       30.13S
K.C. DOWNTOWN  CLOUDY    62  52  69 SE8       30.13S
LEES SUMMIT    CLOUDY    60  53  77 VRB5      30.14S
OLATHE - IXD   CLOUDY    59  54  83 SE8       30.14S
OLATHE - OJC   CLOUDY    59  53  80 SE6       30.12F
LAWRENCE       CLOUDY    61  53  75 SE10      30.13S

$$

MOZ001>008-011>017-020>025-030>033-038>040-044>046-053-054-020600-
...NORTHERN AND CENTRAL MISSOURI...

CITY           SKY/WX    TMP DP  RH WIND       PRES   REMARKS
ST. JOSEPH     CLOUDY    62  54  74 SE12      30.12F
MOSBY          CLOUDY    61  54  77 SE5       30.13F
HARRISONVILLE  CLOUDY    61  55  82 SE6       30.15F
WARRENSBURG    CLOUDY    59  52  77 E6        30.13F
WHITEMAN AFB   CLOUDY    60  54  81 SE3       30.13F
CLINTON        CLOUDY    61  55  82 E7        30.14S
SEDALIA        CLOUDY    61  54  77 SE6       30.15S
WARSAW         FOG       59  54  82 E3        30.14F VSB 3/4
CHILLICOTHE      N/A     62  54  74 SE5       30.15F
MOBERLY        CLEAR     57  52  82 E3        30.15
KIRKSVILLE     CLEAR     52  51  97 CALM      30.15F FOG

$$

MOZ041-047>049-056>058-063>065-088>090-097-020600-
...EASTERN AND SOUTHERN MISSOURI...

CITY           SKY/WX    TMP DP  RH WIND       PRES   REMARKS
ST. LOUIS INTL MOCLDY    64  56  75 NE3       30.13F
SPIRIT OF STL  CLOUDY    59  58  96 CALM      30.12F
COLUMBIA       CLOUDY    58  56  93 CALM      30.14F
JEFFERSON CITY CLOUDY    60  56  86 CALM      30.14F
MEXICO         CLEAR    N/A N/A N/A CALM      30.14F HAZE
ROLLA          CLOUDY    57  56  96 CALM      30.13F
LEBANON        CLOUDY    57  55  94 E3        30.14S
OSAGE BEACH    CLOUDY    59  55  88 E5        30.14F
SPRINGFIELD    PTCLDY    57  54  89 E7        30.12S
BRANSON        CLOUDY    59  57  94 E8        30.13S
NEVADA         CLEAR     55  54  94 E5        30.14F
JOPLIN         CLEAR     58  55  90 E8        30.11S
WEST PLAINS    CLOUDY    59  55  87 E5        30.14S

$$

IAZ060-094-KSZ022-034>040-054-083-096-NEZ052-066-093-020600-
...KANSAS...SOUTHEAST NEBRASKA AND IOWA...

CITY           SKY/WX    TMP DP  RH WIND       PRES   REMARKS
TOPEKA         CLOUDY    60  54  80 SE7       30.13S
MANHATTAN      CLOUDY    60  55  83 SE7       30.10S
EMPORIA        CLEAR     57  55  93 E6        30.11S
CHANUTE        PTCLDY    59  56  89 E9        30.10F
WICHITA        MOCLDY    67  58  72 E9        30.06S
OMAHA          PTCLDY    64  52  64 S10       30.08S
LINCOLN        CLEAR     63  55  75 S15       30.08S
FALLS CITY     CLEAR     57  52  83 S6        30.11R
LAMONI         PTCLDY    58  53  84 SE5       30.13S
DES MOINES     PTCLDY    59  53  80 S6        30.12S

$$




USA.gov is the U.S. government's official web portal to all federal, state and local government web resources and services.